Location: Newark
(45.5000°N, 11.4167°E)
Time: 10:49:16
(UTC+00:00)

Vanguard 3 - Visible Passes

Search period start: 20 August 2019 00:00
Search period end: 30 August 2019 00:00
Orbit: 508 x 3263 km, 33.3° (Epoch: 20 August)

Date Brightness Start Highest point End Pass type
(mag) Time Alt. Az. Time Alt. Az. Time Alt. Az.
20 Aug 8.3 19:04:28 10° SW 19:07:04 15° S 19:09:20 10° SSE visible
21 Aug 8.5 20:02:49 10° SW 20:04:05 12° SSW 20:04:05 12° SSW visible
22 Aug 8.4 18:48:04 10° SW 18:51:06 17° S 18:53:40 10° SSE visible
23 Aug 8.6 19:46:56 10° SW 19:48:19 11° SSW 19:49:00 11° S visible
24 Aug 8.6 18:31:33 10° WSW 18:35:07 18° SSW 18:37:59 10° SSE visible
25 Aug 8.7 19:30:56 10° SW 19:32:15 11° SSW 19:33:29 10° S visible
27 Aug 9.0 19:14:48 10° SW 19:16:08 11° SSW 19:17:21 10° SSW visible
29 Aug 9.2 18:58:34 10° SW 18:59:58 11° SSW 19:01:14 10° SSW visible
